• In Belarus
  • List of Countries
  • For 7 days
  • Water Temperature
  • Satellite Maps
  • Weather Map
  • Weather Widgets
  • user-avatar
    Login

    Hourly Weather Meknes

    Today, 27 May, Sunday

    Time Temperature Precipitation Wind Pressure Humidity
    00:00 +16°C° 0 mm 1 mps 715 mmHg 85%
    01:00 +16°C° 0.1 mm 1 mps 715 mmHg 86%
    02:00 +16°C° 0.1 mm 1 mps 715 mmHg 87%
    03:00 +16°C° 0.1 mm 1 mps 715 mmHg 87%
    04:00 +16°C° 0 mm 1 mps 715 mmHg 87%
    05:00 +15°C° 0 mm 0 mps 716 mmHg 86%
    06:00 +15°C° 0 mm 0 mps 716 mmHg 85%
    07:00 +18°C° 0.1 mm 1 mps 716 mmHg 81%
    08:00 +19°C° 0.1 mm 1 mps 716 mmHg 76%
    09:00 +20°C° 0.1 mm 1 mps 716 mmHg 72%
    10:00 +19°C° 0.6 mm 2 mps 717 mmHg 68%
    11:00 +20°C° 0.6 mm 2 mps 717 mmHg 64%
    12:00 +21°C° 0 mm 3 mps 718 mmHg 61%
    13:00 +21°C° 0.4 mm 3 mps 717 mmHg 60%
    14:00 +22°C° 0.4 mm 3 mps 717 mmHg 58%
    15:00 +22°C° 0.4 mm 4 mps 717 mmHg 56%
    16:00 +21°C° 0.1 mm 4 mps 717 mmHg 58%
    17:00 +21°C° 0.1 mm 4 mps 717 mmHg 61%
    18:00 +20°C° 0.1 mm 4 mps 717 mmHg 63%
    19:00 +19°C° 0 mm 3 mps 717 mmHg 67%
    20:00 +18°C° 0 mm 3 mps 718 mmHg 72%
    21:00 +17°C° 0 mm 2 mps 718 mmHg 76%
    22:00 +17°C° 0 mm 2 mps 718 mmHg 79%
    23:00 +16°C° 0 mm 1 mps 718 mmHg 83%

    Tomorrow, 28 May, Monday

    Time Temperature Precipitation Wind Pressure Humidity
    00:00 +16°C° 0 mm 1 mps 718 mmHg 86%
    01:00 +16°C° 0 mm 1 mps 718 mmHg 88%
    02:00 +15°C° 0 mm 1 mps 717 mmHg 90%
    03:00 +14°C° 0 mm 0 mps 717 mmHg 92%
    04:00 +14°C° 0 mm 0 mps 717 mmHg 92%
    05:00 +14°C° 0 mm 0 mps 717 mmHg 92%
    06:00 +14°C° 0 mm 0 mps 717 mmHg 91%
    07:00 +16°C° 0 mm 1 mps 717 mmHg 84%
    08:00 +18°C° 0 mm 1 mps 718 mmHg 77%
    09:00 +19°C° 0 mm 1 mps 718 mmHg 70%
    10:00 +19°C° 0 mm 2 mps 718 mmHg 64%
    11:00 +21°C° 0 mm 2 mps 718 mmHg 59%
    12:00 +22°C° 0 mm 3 mps 718 mmHg 53%
    13:00 +22°C° 0 mm 3 mps 717 mmHg 53%
    14:00 +22°C° 0 mm 4 mps 717 mmHg 52%
    15:00 +22°C° 0 mm 4 mps 717 mmHg 52%
    16:00 +22°C° 0 mm 4 mps 717 mmHg 56%
    17:00 +21°C° 0 mm 4 mps 717 mmHg 60%
    18:00 +20°C° 0 mm 4 mps 717 mmHg 65%
    19:00 +19°C° 0 mm 4 mps 717 mmHg 70%
    20:00 +18°C° 0 mm 3 mps 717 mmHg 75%
    21:00 +17°C° 0 mm 3 mps 718 mmHg 80%
    22:00 +16°C° 0 mm 2 mps 718 mmHg 82%
    23:00 +16°C° 0 mm 2 mps 718 mmHg 85%

    Day after tomorrow, 29 May, Tuesday

    Time Temperature Precipitation Wind Pressure Humidity
    00:00 +15°C° 0 mm 1 mps 718 mmHg 87%
    01:00 +15°C° 0 mm 1 mps 717 mmHg 87%
    02:00 +15°C° 0 mm 1 mps 717 mmHg 88%
    03:00 +15°C° 0 mm 1 mps 717 mmHg 88%
    04:00 +15°C° 0 mm 1 mps 717 mmHg 88%
    05:00 +15°C° 0 mm 1 mps 717 mmHg 87%
    06:00 +15°C° 0 mm 1 mps 717 mmHg 87%
    07:00 +15°C° 0 mm 1 mps 717 mmHg 83%
    08:00 +16°C° 0 mm 1 mps 718 mmHg 80%
    09:00 +16°C° 0 mm 2 mps 718 mmHg 77%
    10:00 +17°C° 0 mm 2 mps 718 mmHg 71%
    11:00 +18°C° 0 mm 2 mps 718 mmHg 65%
    12:00 +20°C° 0 mm 2 mps 718 mmHg 59%
    13:00 +21°C° 0 mm 3 mps 718 mmHg 54%
    14:00 +21°C° 0 mm 3 mps 718 mmHg 50%
    15:00 +22°C° 0 mm 4 mps 718 mmHg 46%
    16:00 +22°C° 0 mm 4 mps 717 mmHg 50%
    17:00 +21°C° 0 mm 5 mps 717 mmHg 53%
    18:00 +20°C° 0 mm 5 mps 717 mmHg 57%
    19:00 +19°C° 0 mm 4 mps 717 mmHg 64%
    20:00 +17°C° 0 mm 3 mps 718 mmHg 72%
    21:00 +16°C° 0 mm 2 mps 718 mmHg 79%
    22:00 +16°C° 0 mm 2 mps 718 mmHg 82%
    23:00 +15°C° 0 mm 1 mps 718 mmHg 84%

    30 May, Wednesday

    Time Temperature Precipitation Wind Pressure Humidity
    00:00 +15°C° 0 mm 1 mps 718 mmHg 87%
    01:00 +15°C° 0 mm 1 mps 717 mmHg 88%
    02:00 +14°C° 0 mm 1 mps 717 mmHg 89%
    03:00 +14°C° 0 mm 1 mps 717 mmHg 90%
    04:00 +13°C° 0 mm 0 mps 717 mmHg 90%
    05:00 +13°C° 0 mm 0 mps 717 mmHg 90%
    06:00 +13°C° 0 mm 0 mps 717 mmHg 90%
    07:00 +15°C° 0 mm 1 mps 717 mmHg 81%
    08:00 +18°C° 0 mm 1 mps 717 mmHg 73%
    09:00 +19°C° 0 mm 1 mps 718 mmHg 64%
    10:00 +19°C° 0 mm 2 mps 718 mmHg 59%
    11:00 +20°C° 0 mm 2 mps 718 mmHg 54%
    12:00 +22°C° 0 mm 3 mps 718 mmHg 48%
    13:00 +22°C° 0 mm 3 mps 717 mmHg 48%
    14:00 +23°C° 0 mm 4 mps 717 mmHg 47%
    15:00 +23°C° 0 mm 4 mps 717 mmHg 46%
    16:00 +22°C° 0 mm 4 mps 717 mmHg 51%
    17:00 +21°C° 0 mm 4 mps 717 mmHg 55%
    18:00 +21°C° 0 mm 5 mps 717 mmHg 60%
    19:00 +19°C° 0 mm 4 mps 718 mmHg 65%
    20:00 +18°C° 0 mm 3 mps 718 mmHg 71%
    21:00 +17°C° 0 mm 2 mps 718 mmHg 77%
    22:00 +17°C° 0 mm 2 mps 718 mmHg 79%
    23:00 +16°C° 0 mm 1 mps 718 mmHg 82%

    31 May, Thursday

    Time Temperature Precipitation Wind Pressure Humidity
    00:00 +16°C° 0 mm 1 mps 718 mmHg 84%
    01:00 +15°C° 0 mm 1 mps 717 mmHg 85%
    02:00 +15°C° 0 mm 1 mps 717 mmHg 86%
    03:00 +15°C° 0 mm 1 mps 717 mmHg 88%
    04:00 +15°C° 0 mm 1 mps 717 mmHg 88%
    05:00 +15°C° 0 mm 1 mps 717 mmHg 88%
    06:00 +15°C° 0 mm 1 mps 717 mmHg 88%
    07:00 +16°C° 0 mm 1 mps 717 mmHg 81%
    08:00 +19°C° 0 mm 1 mps 717 mmHg 74%
    09:00 +20°C° 0 mm 1 mps 718 mmHg 67%
    10:00 +20°C° 0 mm 2 mps 718 mmHg 61%
    11:00 +23°C° 0 mm 2 mps 718 mmHg 56%
    12:00 +24°C° 0 mm 3 mps 718 mmHg 50%
    13:00 +25°C° 0.1 mm 3 mps 717 mmHg 48%
    14:00 +26°C° 0.1 mm 3 mps 717 mmHg 45%
    15:00 +26°C° 0.1 mm 4 mps 717 mmHg 43%
    16:00 +25°C° 0.2 mm 4 mps 717 mmHg 47%
    17:00 +25°C° 0.2 mm 4 mps 717 mmHg 50%
    18:00 +23°C° 0.2 mm 4 mps 717 mmHg 54%
    19:00 +21°C° 0 mm 3 mps 717 mmHg 60%
    20:00 +20°C° 0 mm 3 mps 717 mmHg 67%
    21:00 +19°C° 0 mm 2 mps 718 mmHg 73%
    22:00 +19°C° 0 mm 1 mps 717 mmHg 76%
    23:00 +18°C° 0 mm 1 mps 717 mmHg 79%

    1 June, Friday

    Time Temperature Precipitation Wind Pressure Humidity
    00:00 +18°C° 0 mm 1 mps 717 mmHg 82%
    01:00 +18°C° 0 mm 1 mps 716 mmHg 84%
    02:00 +16°C° 0 mm 1 mps 716 mmHg 85%
    03:00 +16°C° 0 mm 1 mps 716 mmHg 87%
    04:00 +16°C° 0.1 mm 1 mps 716 mmHg 87%
    05:00 +16°C° 0.1 mm 1 mps 716 mmHg 87%
    06:00 +15°C° 0.1 mm 0 mps 716 mmHg 87%
    07:00 +18°C° 0 mm 1 mps 716 mmHg 80%
    08:00 +20°C° 0 mm 1 mps 716 mmHg 73%
    09:00 +21°C° 0 mm 1 mps 716 mmHg 66%
    10:00 +23°C° 0 mm 2 mps 716 mmHg 61%
    11:00 +24°C° 0 mm 2 mps 716 mmHg 56%
    12:00 +26°C° 0 mm 3 mps 716 mmHg 51%
    13:00 +26°C° 0.3 mm 3 mps 716 mmHg 50%
    14:00 +27°C° 0.3 mm 3 mps 715 mmHg 48%
    15:00 +28°C° 0.3 mm 4 mps 715 mmHg 47%
    16:00 +27°C° 0.7 mm 4 mps 715 mmHg 50%
    17:00 +26°C° 0.7 mm 4 mps 715 mmHg 54%
    18:00 +25°C° 0.7 mm 5 mps 715 mmHg 58%
    19:00 +22°C° 0.7 mm 4 mps 715 mmHg 64%
    20:00 +21°C° 0.7 mm 3 mps 716 mmHg 70%
    21:00 +19°C° 0.7 mm 2 mps 716 mmHg 75%
    22:00 +19°C° 0.3 mm 2 mps 716 mmHg 78%
    23:00 +19°C° 0.3 mm 2 mps 716 mmHg 80%
    Show more